Time,TemperatureF,DewpointF,PressureIn,WindDirection,WindDirectionDegrees,WindSpeedMPH,WindSpeedGustMPH,Humidity,HourlyPrecipIn,Conditions,Clouds,dailyrainin,SoftwareType,DateUTC
2013-05-31 00:01:00,56.5,48.3,30.19,WSW,258,5.8,5.8,74,0.00,CLR,FEW,0.00,WeatherDisplay:10.37,2013-05-30 23:01:00,
2013-05-31 00:06:00,56.5,48.3,30.19,West,280,4.6,4.6,74,0.00,CLR,FEW,0.00,WeatherDisplay:10.37,2013-05-30 23:06:00,
2013-05-31 00:11:00,56.5,48.3,30.19,West,280,4.6,4.6,74,0.00,CLR,FEW,0.00,WeatherDisplay:10.37,2013-05-30 23:11:00,
2013-05-31 00:16:00,55.9,48.5,30.19,WSW,258,2.3,3.1,76,0.00,CLR,FEW,0.00,WeatherDisplay:10.37,2013-05-30 23:16:00,
2013-05-31 00:21:00,55.8,48.3,30.19,NW,325,3.5,3.5,76,0.00,CLR,FEW,0.00,WeatherDisplay:10.37,2013-05-30 23:21:00,
2013-05-31 00:26:00,55.8,48.3,30.19,West,280,3.5,3.5,76,0.00,CLR,FEW,0.00,WeatherDisplay:10.37,2013-05-30 23:26:00,
2013-05-31 00:31:00,55.6,48.1,30.19,NW,325,4.0,4.0,76,0.00,CLR,FEW,0.00,WeatherDisplay:10.37,2013-05-30 23:31:00,
2013-05-31 00:36:00,55.6,48.5,30.19,West,280,5.8,5.8,77,0.00,CLR,FEW,0.00,WeatherDisplay:10.37,2013-05-30 23:36:00,
2013-05-31 00:41:00,55.4,48.7,30.19,WSW,258,6.9,6.9,78,0.00,CLR,FEW,0.00,WeatherDisplay:10.37,2013-05-30 23:41:00,
2013-05-31 00:46:00,55.2,48.5,30.19,NW,325,6.9,6.9,78,0.00,CLR,FEW,0.00,WeatherDisplay:10.37,2013-05-30 23:46:00,
2013-05-31 00:51:00,55.0,48.0,30.19,West,280,2.3,2.8,77,0.00,CLR,FEW,0.00,WeatherDisplay:10.37,2013-05-30 23:51:00,
2013-05-31 00:56:00,54.9,48.1,30.19,West,280,5.8,5.8,78,0.00,CLR,FEW,0.00,WeatherDisplay:10.37,2013-05-30 23:56:00,
2013-05-31 01:01:00,54.9,48.1,30.20,NW,325,3.5,3.5,78,0.00,CLR,FEW,0.00,WeatherDisplay:10.37,2013-05-31 00:01:00,
2013-05-31 01:06:00,54.7,48.0,30.20,West,280,3.5,3.5,78,0.00,CLR,FEW,0.00,WeatherDisplay:10.37,2013-05-31 00:06:00,
2013-05-31 01:11:00,54.5,48.1,30.20,WSW,258,4.6,4.6,79,0.00,CLR,FEW,0.00,WeatherDisplay:10.37,2013-05-31 00:11:00,
2013-05-31 01:16:00,54.3,47.9,30.20,WSW,258,3.5,3.5,79,0.00,CLR,FEW,0.00,WeatherDisplay:10.37,2013-05-31 00:16:00,
2013-05-31 01:21:00,54.1,47.8,30.21,WSW,258,3.5,3.5,79,0.00,CLR,FEW,0.00,WeatherDisplay:10.37,2013-05-31 00:21:00,
2013-05-31 01:26:00,54.1,47.8,30.21,WSW,258,3.5,3.5,79,0.00,CLR,FEW,0.00,WeatherDisplay:10.37,2013-05-31 00:26:00,
2013-05-31 01:31:00,53.8,47.4,30.21,WSW,258,3.5,3.5,79,0.00,CLR,FEW,0.00,WeatherDisplay:10.37,2013-05-31 00:31:00,
2013-05-31 01:36:00,53.6,47.6,30.21,WSW,258,2.3,2.4,80,0.00,CLR,FEW,0.00,WeatherDisplay:10.37,2013-05-31 00:36:00,
2013-05-31 01:41:00,53.6,47.6,30.19,West,280,2.3,2.4,80,0.00,CLR,FEW,0.00,WeatherDisplay:10.37,2013-05-31 00:41:00,
2013-05-31 01:46:00,53.2,47.2,30.19,WSW,258,3.5,3.5,80,0.00,CLR,FEW,0.00,WeatherDisplay:10.37,2013-05-31 00:46:00,
2013-05-31 01:51:00,53.1,47.1,30.19,WSW,258,2.3,2.3,80,0.00,CLR,FEW,0.00,WeatherDisplay:10.37,2013-05-31 00:51:00,
2013-05-31 01:56:00,52.9,46.9,30.19,WSW,258,3.0,3.0,80,0.00,CLR,FEW,0.00,WeatherDisplay:10.37,2013-05-31 00:56:00,
2013-05-31 02:01:00,52.9,47.2,30.20,WSW,258,4.6,4.6,81,0.00,CLR,FEW,0.00,WeatherDisplay:10.37,2013-05-31 01:01:00,
2013-05-31 02:06:00,52.7,47.0,30.20,WSW,258,2.3,2.3,81,0.00,CLR,FEW,0.00,WeatherDisplay:10.37,2013-05-31 01:06:00,
2013-05-31 02:11:00,52.7,47.0,30.20,WSW,258,3.5,3.5,81,0.00,CLR,FEW,0.00,WeatherDisplay:10.37,2013-05-31 01:11:00,
2013-05-31 02:16:00,52.7,47.0,30.20,WSW,258,3.5,3.5,81,0.00,CLR,FEW,0.00,WeatherDisplay:10.37,2013-05-31 01:16:00,
2013-05-31 02:21:00,52.5,46.9,30.18,ESE,122,2.3,2.3,81,0.00,CLR,FEW,0.00,WeatherDisplay:10.37,2013-05-31 01:21:00,
2013-05-31 02:26:00,52.5,46.9,30.18,WSW,258,2.3,2.3,81,0.00,CLR,FEW,0.00,WeatherDisplay:10.37,2013-05-31 01:26:00,
2013-05-31 02:31:00,52.3,47.0,30.18,WSW,258,2.3,2.3,82,0.00,CLR,FEW,0.00,WeatherDisplay:10.37,2013-05-31 01:31:00,
2013-05-31 02:36:00,52.2,46.8,30.18,ESE,122,2.3,2.3,82,0.00,CLR,FEW,0.00,WeatherDisplay:10.37,2013-05-31 01:36:00,
2013-05-31 02:41:00,52.0,46.7,30.18,ESE,122,3.5,3.5,82,0.00,CLR,FEW,0.00,WeatherDisplay:10.37,2013-05-31 01:41:00,
2013-05-31 02:46:00,52.0,46.7,30.18,WSW,258,2.3,2.3,82,0.00,CLR,FEW,0.00,WeatherDisplay:10.37,2013-05-31 01:46:00,
2013-05-31 02:51:00,52.0,46.7,30.18,WSW,258,2.3,2.3,82,0.00,CLR,FEW,0.00,WeatherDisplay:10.37,2013-05-31 01:51:00,
2013-05-31 02:56:00,51.8,46.5,30.18,WSW,258,3.5,3.5,82,0.00,CLR,FEW,0.00,WeatherDisplay:10.37,2013-05-31 01:56:00,
2013-05-31 03:01:00,52.0,46.7,30.20,WSW,258,3.5,3.5,82,0.00,CLR,FEW,0.00,WeatherDisplay:10.37,2013-05-31 02:01:00,
2013-05-31 03:06:00,52.0,46.7,30.20,WSW,258,1.2,2.7,82,0.00,CLR,FEW,0.00,WeatherDisplay:10.37,2013-05-31 02:06:00,
2013-05-31 03:11:00,52.0,46.7,30.20,WSW,258,1.2,2.7,82,0.00,CLR,FEW,0.00,WeatherDisplay:10.37,2013-05-31 02:11:00,
2013-05-31 03:16:00,51.6,46.3,30.20,WSW,258,5.8,5.8,82,0.00,CLR,FEW,0.00,WeatherDisplay:10.37,2013-05-31 02:16:00,
2013-05-31 03:21:00,51.6,46.3,30.17,WSW,258,3.5,3.5,82,0.00,CLR,FEW,0.00,WeatherDisplay:10.37,2013-05-31 02:21:00,
2013-05-31 03:26:00,51.6,46.3,30.17,WSW,258,2.3,2.9,82,0.00,CLR,FEW,0.00,WeatherDisplay:10.37,2013-05-31 02:26:00,
2013-05-31 03:31:00,51.4,46.1,30.17,WSW,258,3.5,3.5,82,0.00,CLR,FEW,0.00,WeatherDisplay:10.37,2013-05-31 02:31:00,
2013-05-31 03:36:00,51.3,46.0,30.17,WSW,258,1.2,2.4,82,0.00,CLR,FEW,0.00,WeatherDisplay:10.37,2013-05-31 02:36:00,
2013-05-31 03:41:00,51.3,46.0,30.17,ESE,122,3.5,3.5,82,0.00,CLR,FEW,0.00,WeatherDisplay:10.37,2013-05-31 02:41:00,
2013-05-31 03:46:00,50.9,45.9,30.17,WSW,258,5.8,5.8,83,0.00,CLR,FEW,0.00,WeatherDisplay:10.37,2013-05-31 02:46:00,
2013-05-31 03:51:00,50.9,45.9,30.17,WSW,258,4.0,4.0,83,0.00,CLR,FEW,0.00,WeatherDisplay:10.37,2013-05-31 02:51:00,
2013-05-31 03:56:00,50.9,45.9,30.17,West,280,4.6,4.6,83,0.00,CLR,FEW,0.00,WeatherDisplay:10.37,2013-05-31 02:56:00,
2013-05-31 04:01:00,50.7,45.7,30.16,West,280,4.0,4.0,83,0.00,CLR,FEW,0.00,WeatherDisplay:10.37,2013-05-31 03:01:00,
2013-05-31 04:06:00,50.9,45.9,30.16,WSW,258,3.5,3.5,83,0.00,CLR,FEW,0.00,WeatherDisplay:10.37,2013-05-31 03:06:00,
2013-05-31 04:11:00,50.7,45.7,30.16,WSW,258,6.9,6.9,83,0.00,CLR,FEW,0.00,WeatherDisplay:10.37,2013-05-31 03:11:00,
2013-05-31 04:16:00,50.5,45.6,30.16,WSW,258,3.7,3.7,83,0.00,CLR,FEW,0.00,WeatherDisplay:10.37,2013-05-31 03:16:00,
2013-05-31 04:21:00,50.5,45.6,30.16,WSW,258,4.6,4.6,83,0.00,CLR,FEW,0.00,WeatherDisplay:10.37,2013-05-31 03:21:00,
2013-05-31 04:26:00,50.5,45.6,30.16,WSW,258,5.8,5.8,83,0.00,CLR,FEW,0.00,WeatherDisplay:10.37,2013-05-31 03:26:00,
2013-05-31 04:31:00,50.5,45.6,30.16,WSW,258,6.9,6.9,83,0.00,CLR,FEW,0.00,WeatherDisplay:10.37,2013-05-31 03:31:00,
2013-05-31 04:36:00,50.2,45.2,30.16,WSW,258,4.6,4.6,83,0.00,CLR,FEW,0.00,WeatherDisplay:10.37,2013-05-31 03:36:00,
2013-05-31 04:41:00,50.2,45.5,30.15,West,280,4.6,4.6,84,0.00,CLR,FEW,0.00,WeatherDisplay:10.37,2013-05-31 03:41:00,
2013-05-31 04:46:00,50.0,45.4,30.15,West,280,5.8,5.8,84,0.00,CLR,FEW,0.00,WeatherDisplay:10.37,2013-05-31 03:46:00,
2013-05-31 04:51:00,50.0,45.4,30.15,WSW,258,8.1,8.1,84,0.00,CLR,FEW,0.00,WeatherDisplay:10.37,2013-05-31 03:51:00,
2013-05-31 04:56:00,50.0,45.4,30.15,SSE,168,4.6,4.6,84,0.00,CLR,FEW,0.00,WeatherDisplay:10.37,2013-05-31 03:56:00,
2013-05-31 05:01:00,50.0,45.4,30.15,WSW,258,4.6,4.6,84,0.00,CLR,FEW,0.00,WeatherDisplay:10.37,2013-05-31 04:01:00,
2013-05-31 05:06:00,49.8,45.2,30.15,ESE,122,2.3,2.9,84,0.00,CLR,FEW,0.00,WeatherDisplay:10.37,2013-05-31 04:06:00,
2013-05-31 05:11:00,49.6,45.0,30.15,WSW,258,5.8,5.8,84,0.00,CLR,FEW,0.00,WeatherDisplay:10.37,2013-05-31 04:11:00,
2013-05-31 05:16:00,49.6,45.0,30.15,WSW,258,3.5,3.5,84,0.00,CLR,FEW,0.00,WeatherDisplay:10.37,2013-05-31 04:16:00,
2013-05-31 05:21:00,49.6,45.3,30.15,West,280,4.7,4.7,85,0.00,CLR,FEW,0.00,WeatherDisplay:10.37,2013-05-31 04:21:00,
2013-05-31 05:26:00,49.6,45.3,30.15,WSW,258,5.8,5.8,85,0.00,CLR,FEW,0.00,WeatherDisplay:10.37,2013-05-31 04:26:00,
2013-05-31 05:31:00,49.8,45.5,30.15,WSW,258,5.8,5.8,85,0.00,CLR,FEW,0.00,WeatherDisplay:10.37,2013-05-31 04:31:00,
2013-05-31 05:36:00,49.8,45.5,30.15,WSW,258,4.6,4.6,85,0.00,CLR,FEW,0.00,WeatherDisplay:10.37,2013-05-31 04:36:00,
2013-05-31 05:41:00,49.8,45.5,30.16,WSW,258,5.8,5.8,85,0.00,CLR,FEW,0.00,WeatherDisplay:10.37,2013-05-31 04:41:00,
2013-05-31 05:46:00,50.0,45.7,30.16,ESE,122,3.5,3.7,85,0.00,CLR,FEW,0.00,WeatherDisplay:10.37,2013-05-31 04:46:00,
2013-05-31 05:51:00,50.0,45.7,30.16,WSW,258,4.6,4.6,85,0.00,CLR,FEW,0.00,WeatherDisplay:10.37,2013-05-31 04:51:00,
2013-05-31 05:56:00,50.2,45.8,30.16,ESE,122,5.8,5.8,85,0.00,CLR,FEW,0.00,WeatherDisplay:10.37,2013-05-31 04:56:00,
2013-05-31 06:01:00,50.2,45.8,30.16,WSW,258,3.6,4.2,85,0.00,SCT,FEW,0.00,WeatherDisplay:10.37,2013-05-31 05:01:00,
2013-05-31 06:06:00,50.2,45.8,30.16,WSW,258,5.8,5.8,85,0.00,SCT,FEW,0.00,WeatherDisplay:10.37,2013-05-31 05:06:00,
2013-05-31 06:11:00,50.2,45.8,30.16,WSW,258,6.0,6.0,85,0.00,SCT,FEW,0.00,WeatherDisplay:10.37,2013-05-31 05:11:00,
2013-05-31 06:16:00,50.5,46.2,30.16,West,280,6.9,6.9,85,0.00,SCT,FEW,0.00,WeatherDisplay:10.37,2013-05-31 05:16:00,
2013-05-31 06:21:00,50.4,46.0,30.16,WSW,258,4.6,4.6,85,0.00,SCT,FEW,0.00,WeatherDisplay:10.37,2013-05-31 05:21:00,
2013-05-31 06:26:00,50.5,46.2,30.16,WSW,258,6.9,6.9,85,0.00,SCT,FEW,0.00,WeatherDisplay:10.37,2013-05-31 05:26:00,
2013-05-31 06:31:00,50.7,46.4,30.16,ESE,122,2.5,3.4,85,0.00,SCT,FEW,0.00,WeatherDisplay:10.37,2013-05-31 05:31:00,
2013-05-31 06:36:00,50.9,46.6,30.16,WSW,258,5.0,5.0,85,0.00,SCT,FEW,0.00,WeatherDisplay:10.37,2013-05-31 05:36:00,
2013-05-31 06:41:00,51.3,46.9,30.17,WSW,258,4.6,4.6,85,0.00,SCT,FEW,0.00,WeatherDisplay:10.37,2013-05-31 05:41:00,
2013-05-31 06:46:00,51.6,46.9,30.17,East,100,5.8,5.8,84,0.00,SCT,FEW,0.00,WeatherDisplay:10.37,2013-05-31 05:46:00,
2013-05-31 06:51:00,52.3,47.3,30.17,NW,325,2.3,3.1,83,0.00,SCT,FEW,0.00,WeatherDisplay:10.37,2013-05-31 05:51:00,
2013-05-31 06:56:00,53.8,48.7,30.17,West,280,2.3,2.8,83,0.00,SCT,FEW,0.00,WeatherDisplay:10.37,2013-05-31 05:56:00,
2013-05-31 07:01:00,54.3,48.6,30.16,WSW,258,8.1,8.1,81,0.00,FEW,,0.00,WeatherDisplay:10.37,2013-05-31 06:01:00,
2013-05-31 07:06:00,55.4,49.7,30.16,WSW,258,4.6,4.6,81,0.00,FEW,,0.00,WeatherDisplay:10.37,2013-05-31 06:06:00,
2013-05-31 07:11:00,55.9,49.5,30.16,WSW,258,9.2,9.2,79,0.00,FEW,,0.00,WeatherDisplay:10.37,2013-05-31 06:11:00,
2013-05-31 07:16:00,56.3,49.9,30.16,WSW,258,4.6,4.6,79,0.00,FEW,,0.00,WeatherDisplay:10.37,2013-05-31 06:16:00,
2013-05-31 07:21:00,56.7,49.9,30.16,WSW,258,5.8,5.8,78,0.00,FEW,,0.00,WeatherDisplay:10.37,2013-05-31 06:21:00,
2013-05-31 07:26:00,57.2,50.4,30.16,WSW,258,4.6,4.6,78,0.00,FEW,,0.00,WeatherDisplay:10.37,2013-05-31 06:26:00,
2013-05-31 07:31:00,57.7,50.6,30.16,WSW,258,8.5,8.5,77,0.00,FEW,,0.00,WeatherDisplay:10.37,2013-05-31 06:31:00,
2013-05-31 07:36:00,58.5,51.3,30.16,West,280,8.1,8.1,77,0.00,FEW,,0.00,WeatherDisplay:10.37,2013-05-31 06:36:00,
2013-05-31 07:41:00,58.6,51.1,30.17,West,280,4.7,4.7,76,0.00,FEW,,0.00,WeatherDisplay:10.37,2013-05-31 06:41:00,
2013-05-31 07:46:00,58.5,50.9,30.17,South,190,4.6,4.6,76,0.00,FEW,,0.00,WeatherDisplay:10.37,2013-05-31 06:46:00,
2013-05-31 07:51:00,58.1,50.9,30.17,WSW,258,5.8,5.8,77,0.00,FEW,,0.00,WeatherDisplay:10.37,2013-05-31 06:51:00,
2013-05-31 07:56:00,57.7,50.6,30.17,WSW,258,3.5,3.5,77,0.00,FEW,,0.00,WeatherDisplay:10.37,2013-05-31 06:56:00,
2013-05-31 08:01:00,57.2,50.4,30.18,ESE,122,1.2,2.4,78,0.00,SCT,FEW,0.00,WeatherDisplay:10.37,2013-05-31 07:01:00,
2013-05-31 08:06:00,57.0,50.6,30.18,West,280,4.6,4.6,79,0.00,SCT,FEW,0.00,WeatherDisplay:10.37,2013-05-31 07:06:00,
2013-05-31 08:11:00,57.0,50.6,30.18,WSW,258,4.6,4.6,79,0.00,SCT,FEW,0.00,WeatherDisplay:10.37,2013-05-31 07:11:00,
2013-05-31 08:16:00,57.2,50.7,30.18,West,280,5.8,5.8,79,0.00,SCT,FEW,0.00,WeatherDisplay:10.37,2013-05-31 07:16:00,
2013-05-31 08:21:00,57.7,51.3,30.19,WSW,258,2.3,3.3,79,0.00,SCT,FEW,0.00,WeatherDisplay:10.37,2013-05-31 07:21:00,
2013-05-31 08:26:00,57.9,51.4,30.19,NW,325,4.6,4.6,79,0.00,SCT,FEW,0.00,WeatherDisplay:10.37,2013-05-31 07:26:00,
2013-05-31 08:31:00,59.0,52.8,30.19,WSW,258,3.5,3.5,80,0.00,SCT,FEW,0.00,WeatherDisplay:10.37,2013-05-31 07:31:00,
2013-05-31 08:37:00,59.2,52.7,30.19,NW,325,3.5,3.5,79,0.00,SCT,FEW,0.00,WeatherDisplay:10.37,2013-05-31 07:37:00,
2013-05-31 08:42:00,58.6,52.1,30.19,WNW,302,5.8,5.8,79,0.00,SCT,FEW,0.00,WeatherDisplay:10.37,2013-05-31 07:42:00,
2013-05-31 08:47:00,58.5,52.0,30.19,NW,325,5.8,5.8,79,0.00,SCT,FEW,0.00,WeatherDisplay:10.37,2013-05-31 07:47:00,
2013-05-31 08:52:00,58.8,52.7,30.19,West,280,3.5,3.5,80,0.00,SCT,FEW,0.00,WeatherDisplay:10.37,2013-05-31 07:52:00,
2013-05-31 08:57:00,59.9,53.4,30.19,WSW,258,3.5,3.5,79,0.00,SCT,FEW,0.00,WeatherDisplay:10.37,2013-05-31 07:57:00,
2013-05-31 09:02:00,60.3,53.4,30.21,WSW,258,4.6,4.6,78,0.00,BKN,FEW,0.00,WeatherDisplay:10.37,2013-05-31 08:02:00,
2013-05-31 09:07:00,60.1,52.8,30.21,West,280,6.9,6.9,77,0.00,BKN,FEW,0.00,WeatherDisplay:10.37,2013-05-31 08:07:00,
2013-05-31 09:12:00,59.5,52.7,30.21,WSW,258,4.6,4.6,78,0.00,BKN,FEW,0.00,WeatherDisplay:10.37,2013-05-31 08:12:00,
2013-05-31 09:17:00,59.4,52.5,30.21,NW,325,5.8,5.8,78,0.00,BKN,FEW,0.00,WeatherDisplay:10.37,2013-05-31 08:17:00,
2013-05-31 09:22:00,59.5,53.0,30.22,WSW,258,6.9,6.9,79,0.00,BKN,FEW,0.00,WeatherDisplay:10.37,2013-05-31 08:22:00,
2013-05-31 09:27:00,59.7,53.5,30.22,West,280,4.6,4.6,80,0.00,BKN,FEW,0.00,WeatherDisplay:10.37,2013-05-31 08:27:00,
2013-05-31 09:32:00,59.9,53.4,30.22,WSW,258,9.2,9.2,79,0.00,BKN,FEW,0.00,WeatherDisplay:10.37,2013-05-31 08:32:00,
2013-05-31 09:37:00,60.3,53.7,30.22,NW,325,5.8,5.8,79,0.00,BKN,FEW,0.00,WeatherDisplay:10.37,2013-05-31 08:37:00,
2013-05-31 09:42:00,60.1,53.5,30.21,NNE,32,6.9,6.9,79,0.00,BKN,FEW,0.00,WeatherDisplay:10.37,2013-05-31 08:42:00,
2013-05-31 09:47:00,60.3,53.7,30.21,WNW,302,6.9,6.9,79,0.00,BKN,FEW,0.00,WeatherDisplay:10.37,2013-05-31 08:47:00,
2013-05-31 09:52:00,60.3,53.7,30.21,West,280,6.9,6.9,79,0.00,BKN,FEW,0.00,WeatherDisplay:10.37,2013-05-31 08:52:00,
2013-05-31 09:57:00,59.7,53.2,30.21,WSW,258,9.2,9.2,79,0.00,BKN,FEW,0.00,WeatherDisplay:10.37,2013-05-31 08:57:00,
2013-05-31 10:02:00,59.9,53.7,30.22,WSW,258,8.1,8.1,80,0.00,BKN,FEW,0.00,WeatherDisplay:10.37,2013-05-31 09:02:00,
2013-05-31 10:07:00,59.9,53.7,30.22,WSW,258,11.5,11.5,80,0.00,BKN,FEW,0.00,WeatherDisplay:10.37,2013-05-31 09:07:00,
2013-05-31 10:12:00,59.5,53.4,30.22,West,280,9.2,9.2,80,0.00,BKN,FEW,0.00,WeatherDisplay:10.37,2013-05-31 09:12:00,
2013-05-31 10:17:00,59.4,53.2,30.22,West,280,10.4,10.4,80,0.00,BKN,FEW,0.00,WeatherDisplay:10.37,2013-05-31 09:17:00,
2013-05-31 10:22:00,59.0,53.2,30.22,WSW,258,8.1,8.1,81,0.00,BKN,FEW,0.00,WeatherDisplay:10.37,2013-05-31 09:22:00,
2013-05-31 10:27:00,59.4,53.5,30.22,ESE,122,10.4,10.4,81,0.00,BKN,FEW,0.00,WeatherDisplay:10.37,2013-05-31 09:27:00,
2013-05-31 10:32:00,59.5,53.4,30.22,WSW,258,5.8,5.8,80,0.00,BKN,FEW,0.00,WeatherDisplay:10.37,2013-05-31 09:32:00,
2013-05-31 10:37:00,60.3,54.1,30.22,WSW,258,6.9,6.9,80,0.00,BKN,FEW,0.00,WeatherDisplay:10.37,2013-05-31 09:37:00,
2013-05-31 10:42:00,60.8,54.2,30.21,WSW,258,9.2,9.2,79,0.00,BKN,FEW,0.00,WeatherDisplay:10.37,2013-05-31 09:42:00,
2013-05-31 10:47:00,60.8,54.2,30.21,WSW,258,8.1,8.1,79,0.00,BKN,FEW,0.00,WeatherDisplay:10.37,2013-05-31 09:47:00,
2013-05-31 10:52:00,61.0,54.4,30.21,West,280,6.4,6.4,79,0.00,BKN,FEW,0.00,WeatherDisplay:10.37,2013-05-31 09:52:00,
2013-05-31 10:57:00,61.5,54.2,30.21,WSW,258,6.3,6.3,77,0.00,BKN,FEW,0.00,WeatherDisplay:10.37,2013-05-31 09:57:00,
2013-05-31 11:02:00,61.7,54.1,30.23,NW,325,13.4,13.4,76,0.00,BKN,FEW,0.00,WeatherDisplay:10.37,2013-05-31 10:02:00,
2013-05-31 11:07:00,61.5,53.9,30.23,WSW,258,11.5,11.5,76,0.00,BKN,FEW,0.00,WeatherDisplay:10.37,2013-05-31 10:07:00,
2013-05-31 11:12:00,61.2,53.5,30.23,West,280,11.5,11.5,76,0.00,BKN,FEW,0.00,WeatherDisplay:10.37,2013-05-31 10:12:00,
2013-05-31 11:17:00,60.8,53.5,30.23,WSW,258,3.5,4.8,77,0.00,BKN,FEW,0.00,WeatherDisplay:10.37,2013-05-31 10:17:00,
2013-05-31 11:22:00,60.3,52.7,30.24,ESE,122,11.5,11.5,76,0.00,BKN,FEW,0.00,WeatherDisplay:10.37,2013-05-31 10:22:00,
2013-05-31 11:27:00,60.1,52.8,30.24,NW,325,6.9,6.9,77,0.00,BKN,FEW,0.00,WeatherDisplay:10.37,2013-05-31 10:27:00,
2013-05-31 11:32:00,59.9,52.7,30.24,NNE,32,4.6,4.6,77,0.00,BKN,FEW,0.00,WeatherDisplay:10.37,2013-05-31 10:32:00,
2013-05-31 11:37:00,60.1,53.2,30.24,WSW,258,7.1,7.1,78,0.00,BKN,FEW,0.00,WeatherDisplay:10.37,2013-05-31 10:37:00,
2013-05-31 11:42:00,60.1,52.8,30.23,WSW,258,5.8,5.8,77,0.00,BKN,FEW,0.00,WeatherDisplay:10.37,2013-05-31 10:42:00,
2013-05-31 11:47:00,60.1,53.2,30.23,WSW,258,6.0,6.0,78,0.00,BKN,FEW,0.00,WeatherDisplay:10.37,2013-05-31 10:47:00,
2013-05-31 11:52:00,60.3,53.0,30.23,WSW,258,7.8,7.8,77,0.00,BKN,FEW,0.00,WeatherDisplay:10.37,2013-05-31 10:52:00,
2013-05-31 11:57:00,60.3,52.7,30.23,West,280,6.9,6.9,76,0.00,BKN,FEW,0.00,WeatherDisplay:10.37,2013-05-31 10:57:00,
2013-05-31 12:02:00,60.6,53.0,30.24,WSW,258,9.2,9.2,76,0.00,BKN,FEW,0.00,WeatherDisplay:10.37,2013-05-31 11:02:00,
2013-05-31 12:07:00,60.6,53.0,30.24,WSW,258,6.9,6.9,76,0.00,BKN,FEW,0.00,WeatherDisplay:10.37,2013-05-31 11:07:00,
2013-05-31 12:12:00,61.9,53.5,30.24,West,280,6.9,6.9,74,0.00,BKN,FEW,0.00,WeatherDisplay:10.37,2013-05-31 11:12:00,
2013-05-31 12:17:00,62.2,53.1,30.24,WSW,258,4.6,5.0,72,0.00,BKN,FEW,0.00,WeatherDisplay:10.37,2013-05-31 11:17:00,
2013-05-31 12:22:00,62.2,53.1,30.25,West,280,4.6,4.8,72,0.00,BKN,FEW,0.00,WeatherDisplay:10.37,2013-05-31 11:22:00,
2013-05-31 12:27:00,62.2,52.7,30.25,WSW,258,9.2,9.2,71,0.00,BKN,FEW,0.00,WeatherDisplay:10.37,2013-05-31 11:27:00,
2013-05-31 12:32:00,62.4,52.9,30.25,NW,325,4.6,5.1,71,0.00,BKN,FEW,0.00,WeatherDisplay:10.37,2013-05-31 11:32:00,
2013-05-31 12:37:00,62.4,52.5,30.25,West,280,8.1,8.1,70,0.00,BKN,FEW,0.00,WeatherDisplay:10.37,2013-05-31 11:37:00,
2013-05-31 12:42:00,62.2,51.9,30.26,WSW,258,9.2,9.2,69,0.00,BKN,FEW,0.00,WeatherDisplay:10.37,2013-05-31 11:42:00,
2013-05-31 12:47:00,62.4,51.7,30.26,WNW,302,12.1,12.1,68,0.00,BKN,FEW,0.00,WeatherDisplay:10.37,2013-05-31 11:47:00,
2013-05-31 12:52:00,62.1,51.4,30.26,NW,325,8.1,8.1,68,0.00,BKN,FEW,0.00,WeatherDisplay:10.37,2013-05-31 11:52:00,
2013-05-31 12:57:00,62.1,51.4,30.26,ESE,122,5.8,5.8,68,0.00,BKN,FEW,0.00,WeatherDisplay:10.37,2013-05-31 11:57:00,
2013-05-31 13:02:00,62.4,52.1,30.26,NW,325,11.5,11.5,69,0.00,BKN,FEW,0.00,WeatherDisplay:10.37,2013-05-31 12:02:00,
2013-05-31 13:07:00,61.9,51.2,30.26,West,280,5.1,5.1,68,0.00,BKN,FEW,0.00,WeatherDisplay:10.37,2013-05-31 12:07:00,
2013-05-31 13:12:00,61.7,51.0,30.26,West,280,9.2,9.2,68,0.00,BKN,FEW,0.00,WeatherDisplay:10.37,2013-05-31 12:12:00,
2013-05-31 13:17:00,61.3,50.7,30.26,WSW,258,5.8,5.8,68,0.00,BKN,FEW,0.00,WeatherDisplay:10.37,2013-05-31 12:17:00,
2013-05-31 13:22:00,61.3,51.1,30.26,West,280,9.4,9.4,69,0.00,BKN,FEW,0.00,WeatherDisplay:10.37,2013-05-31 12:22:00,
2013-05-31 13:27:00,61.0,50.7,30.26,NW,325,6.0,6.0,69,0.00,BKN,FEW,0.00,WeatherDisplay:10.37,2013-05-31 12:27:00,
2013-05-31 13:33:00,60.8,51.0,30.26,ESE,122,5.8,5.8,70,0.00,BKN,FEW,0.00,WeatherDisplay:10.37,2013-05-31 12:33:00,
2013-05-31 13:38:00,60.8,51.0,30.26,West,280,3.5,4.0,70,0.00,BKN,FEW,0.00,WeatherDisplay:10.37,2013-05-31 12:38:00,
2013-05-31 13:43:00,61.0,51.1,30.26,NW,325,8.1,8.1,70,0.00,BKN,FEW,0.00,WeatherDisplay:10.37,2013-05-31 12:43:00,
2013-05-31 13:48:00,61.2,51.3,30.26,West,280,6.9,6.9,70,0.00,BKN,FEW,0.00,WeatherDisplay:10.37,2013-05-31 12:48:00,
2013-05-31 13:53:00,61.7,51.4,30.26,WNW,302,5.8,5.8,69,0.00,BKN,FEW,0.00,WeatherDisplay:10.37,2013-05-31 12:53:00,
2013-05-31 13:58:00,61.3,51.1,30.26,WSW,258,3.5,3.7,69,0.00,BKN,FEW,0.00,WeatherDisplay:10.37,2013-05-31 12:58:00,
2013-05-31 14:03:00,61.0,51.1,30.26,WSW,258,9.2,9.2,70,0.00,BKN,FEW,0.00,WeatherDisplay:10.37,2013-05-31 13:03:00,
2013-05-31 14:08:00,60.3,50.4,30.26,WNW,302,10.4,10.4,70,0.00,BKN,FEW,0.00,WeatherDisplay:10.37,2013-05-31 13:08:00,
2013-05-31 14:13:00,60.1,50.6,30.26,NW,325,10.4,10.4,71,0.00,BKN,FEW,0.00,WeatherDisplay:10.37,2013-05-31 13:13:00,
2013-05-31 14:18:00,59.9,50.8,30.26,West,280,5.8,5.8,72,0.00,BKN,FEW,0.00,WeatherDisplay:10.37,2013-05-31 13:18:00,
2013-05-31 14:23:00,60.1,51.0,30.26,NW,325,5.8,5.8,72,0.00,BKN,FEW,0.00,WeatherDisplay:10.37,2013-05-31 13:23:00,
2013-05-31 14:28:00,60.1,51.0,30.26,WSW,258,9.7,9.7,72,0.00,BKN,FEW,0.00,WeatherDisplay:10.37,2013-05-31 13:28:00,
2013-05-31 14:33:00,60.3,51.2,30.26,NW,325,6.9,6.9,72,0.00,BKN,FEW,0.00,WeatherDisplay:10.37,2013-05-31 13:33:00,
2013-05-31 14:38:00,60.6,51.2,30.26,WNW,302,5.8,5.8,71,0.00,BKN,FEW,0.00,WeatherDisplay:10.37,2013-05-31 13:38:00,
2013-05-31 14:43:00,60.6,51.2,30.26,WSW,258,5.8,5.8,71,0.00,BKN,FEW,0.00,WeatherDisplay:10.37,2013-05-31 13:43:00,
2013-05-31 14:48:00,60.6,50.8,30.26,WNW,302,9.2,9.2,70,0.00,BKN,FEW,0.00,WeatherDisplay:10.37,2013-05-31 13:48:00,
2013-05-31 14:53:00,60.4,50.2,30.26,NW,325,6.9,6.9,69,0.00,BKN,FEW,0.00,WeatherDisplay:10.37,2013-05-31 13:53:00,
2013-05-31 14:58:00,60.1,49.9,30.26,SW,235,5.8,5.8,69,0.00,BKN,FEW,0.00,WeatherDisplay:10.37,2013-05-31 13:58:00,
2013-05-31 15:03:00,60.3,50.4,30.26,WSW,258,8.1,8.1,70,0.00,BKN,FEW,0.00,WeatherDisplay:10.37,2013-05-31 14:03:00,
2013-05-31 15:08:00,60.1,50.3,30.26,WSW,258,3.5,4.3,70,0.00,BKN,FEW,0.00,WeatherDisplay:10.37,2013-05-31 14:08:00,
2013-05-31 15:13:00,60.1,50.3,30.26,West,280,10.4,10.4,70,0.00,BKN,FEW,0.00,WeatherDisplay:10.37,2013-05-31 14:13:00,
2013-05-31 15:18:00,60.1,49.9,30.26,NW,325,5.8,5.8,69,0.00,BKN,FEW,0.00,WeatherDisplay:10.37,2013-05-31 14:18:00,
2013-05-31 15:23:00,60.1,49.9,30.25,West,280,10.4,10.4,69,0.00,BKN,FEW,0.00,WeatherDisplay:10.37,2013-05-31 14:23:00,
2013-05-31 15:28:00,59.9,49.3,30.25,WSW,258,4.6,5.4,68,0.00,BKN,FEW,0.00,WeatherDisplay:10.37,2013-05-31 14:28:00,
2013-05-31 15:33:00,59.9,49.7,30.25,NW,325,6.9,6.9,69,0.00,BKN,FEW,0.00,WeatherDisplay:10.37,2013-05-31 14:33:00,
2013-05-31 15:38:00,59.5,49.4,30.25,WSW,258,8.5,8.5,69,0.00,BKN,FEW,0.00,WeatherDisplay:10.37,2013-05-31 14:38:00,
2013-05-31 15:43:00,59.7,49.9,30.26,WSW,258,5.8,5.8,70,0.00,BKN,FEW,0.00,WeatherDisplay:10.37,2013-05-31 14:43:00,
2013-05-31 15:48:00,59.5,49.4,30.26,WSW,258,6.6,6.6,69,0.00,BKN,FEW,0.00,WeatherDisplay:10.37,2013-05-31 14:48:00,
2013-05-31 15:53:00,59.4,49.6,30.26,West,280,8.1,8.1,70,0.00,BKN,FEW,0.00,WeatherDisplay:10.37,2013-05-31 14:53:00,
2013-05-31 15:58:00,59.5,49.7,30.26,WSW,258,4.6,4.6,70,0.00,BKN,FEW,0.00,WeatherDisplay:10.37,2013-05-31 14:58:00,
2013-05-31 16:03:00,59.9,50.1,30.26,WNW,302,8.1,8.1,70,0.00,BKN,FEW,0.00,WeatherDisplay:10.37,2013-05-31 15:03:00,
2013-05-31 16:08:00,59.9,49.7,30.26,NW,325,11.5,11.5,69,0.00,BKN,FEW,0.00,WeatherDisplay:10.37,2013-05-31 15:08:00,
2013-05-31 16:13:00,59.7,49.5,30.26,WNW,302,8.1,8.1,69,0.00,BKN,FEW,0.00,WeatherDisplay:10.37,2013-05-31 15:13:00,
2013-05-31 16:18:00,59.9,49.3,30.26,West,280,8.1,8.1,68,0.00,BKN,FEW,0.00,WeatherDisplay:10.37,2013-05-31 15:18:00,
2013-05-31 16:23:00,59.9,49.3,30.26,NW,325,5.8,5.8,68,0.00,BKN,FEW,0.00,WeatherDisplay:10.37,2013-05-31 15:23:00,
2013-05-31 16:28:00,60.1,49.5,30.26,West,280,8.1,8.1,68,0.00,BKN,FEW,0.00,WeatherDisplay:10.37,2013-05-31 15:28:00,
2013-05-31 16:33:00,60.3,49.7,30.26,WNW,302,6.9,6.9,68,0.00,BKN,FEW,0.00,WeatherDisplay:10.37,2013-05-31 15:33:00,
2013-05-31 16:38:00,60.3,48.9,30.26,NW,325,6.9,6.9,66,0.00,BKN,FEW,0.00,WeatherDisplay:10.37,2013-05-31 15:38:00,
2013-05-31 16:43:00,60.4,49.0,30.26,WSW,258,10.4,10.4,66,0.00,BKN,FEW,0.00,WeatherDisplay:10.37,2013-05-31 15:43:00,
2013-05-31 16:48:00,60.6,49.2,30.26,ESE,122,5.8,5.8,66,0.00,BKN,FEW,0.00,WeatherDisplay:10.37,2013-05-31 15:48:00,
2013-05-31 16:53:00,60.6,49.2,30.26,ESE,122,8.1,8.1,66,0.00,BKN,FEW,0.00,WeatherDisplay:10.37,2013-05-31 15:53:00,
2013-05-31 16:58:00,60.6,49.2,30.26,West,280,6.9,6.9,66,0.00,BKN,FEW,0.00,WeatherDisplay:10.37,2013-05-31 15:58:00,
2013-05-31 17:03:00,60.6,49.6,30.26,WSW,258,5.8,5.8,67,0.00,BKN,FEW,0.00,WeatherDisplay:10.37,2013-05-31 16:03:00,
2013-05-31 17:08:00,60.3,48.9,30.26,West,280,7.7,7.7,66,0.00,BKN,FEW,0.00,WeatherDisplay:10.37,2013-05-31 16:08:00,
2013-05-31 17:13:00,60.1,49.1,30.26,NW,325,6.9,6.9,67,0.00,BKN,FEW,0.00,WeatherDisplay:10.37,2013-05-31 16:13:00,
2013-05-31 17:18:00,59.9,48.9,30.26,NW,325,7.7,7.7,67,0.00,BKN,FEW,0.00,WeatherDisplay:10.37,2013-05-31 16:18:00,
2013-05-31 17:23:00,59.9,48.9,30.25,ESE,122,5.8,5.8,67,0.00,BKN,FEW,0.00,WeatherDisplay:10.37,2013-05-31 16:23:00,
2013-05-31 17:28:00,59.5,48.2,30.25,West,280,6.9,6.9,66,0.00,BKN,FEW,0.00,WeatherDisplay:10.37,2013-05-31 16:28:00,
2013-05-31 17:33:00,59.5,48.6,30.25,WSW,258,8.1,8.1,67,0.00,BKN,FEW,0.00,WeatherDisplay:10.37,2013-05-31 16:33:00,
2013-05-31 17:38:00,59.5,48.6,30.25,WSW,258,8.1,8.1,67,0.00,BKN,FEW,0.00,WeatherDisplay:10.37,2013-05-31 16:38:00,
2013-05-31 17:43:00,59.5,48.6,30.24,West,280,4.6,4.6,67,0.00,BKN,FEW,0.00,WeatherDisplay:10.37,2013-05-31 16:43:00,
2013-05-31 17:48:00,59.7,48.7,30.24,WSW,258,2.3,3.6,67,0.00,BKN,FEW,0.00,WeatherDisplay:10.37,2013-05-31 16:48:00,
2013-05-31 17:53:00,59.9,48.5,30.24,West,280,6.9,6.9,66,0.00,BKN,FEW,0.00,WeatherDisplay:10.37,2013-05-31 16:53:00,
2013-05-31 17:58:00,59.5,48.2,30.24,West,280,3.5,5.0,66,0.00,BKN,FEW,0.00,WeatherDisplay:10.37,2013-05-31 16:58:00,
2013-05-31 18:03:00,59.9,48.5,30.25,West,280,5.8,5.8,66,0.00,BKN,FEW,0.00,WeatherDisplay:10.37,2013-05-31 17:03:00,
2013-05-31 18:08:00,59.9,48.1,30.25,WNW,302,3.5,5.3,65,0.00,BKN,FEW,0.00,WeatherDisplay:10.37,2013-05-31 17:08:00,
2013-05-31 18:13:00,59.9,48.1,30.25,WSW,258,15.0,15.0,65,0.00,BKN,FEW,0.00,WeatherDisplay:10.37,2013-05-31 17:13:00,
2013-05-31 18:18:00,59.9,48.1,30.25,West,280,10.4,10.4,65,0.00,BKN,FEW,0.00,WeatherDisplay:10.37,2013-05-31 17:18:00,
2013-05-31 18:23:00,59.5,47.3,30.25,WNW,302,10.4,10.4,64,0.00,BKN,FEW,0.00,WeatherDisplay:10.37,2013-05-31 17:23:00,
2013-05-31 18:28:00,59.5,47.8,30.25,West,280,9.2,9.2,65,0.00,BKN,FEW,0.00,WeatherDisplay:10.37,2013-05-31 17:28:00,
2013-05-31 18:33:00,59.4,47.6,30.25,WSW,258,9.2,9.2,65,0.00,BKN,FEW,0.00,WeatherDisplay:10.37,2013-05-31 17:33:00,
2013-05-31 18:38:00,59.4,47.6,30.25,West,280,8.1,8.1,65,0.00,BKN,FEW,0.00,WeatherDisplay:10.37,2013-05-31 17:38:00,
2013-05-31 18:43:00,59.4,47.6,30.25,West,280,9.2,9.2,65,0.00,BKN,FEW,0.00,WeatherDisplay:10.37,2013-05-31 17:43:00,
2013-05-31 18:48:00,59.2,47.4,30.25,WSW,258,12.0,12.0,65,0.00,BKN,FEW,0.00,WeatherDisplay:10.37,2013-05-31 17:48:00,
2013-05-31 18:53:00,59.2,47.4,30.25,WSW,258,9.3,9.3,65,0.00,BKN,FEW,0.00,WeatherDisplay:10.37,2013-05-31 17:53:00,
2013-05-31 18:58:00,58.8,47.1,30.25,West,280,9.2,9.2,65,0.00,BKN,FEW,0.00,WeatherDisplay:10.37,2013-05-31 17:58:00,
2013-05-31 19:03:00,59.0,47.2,30.26,West,280,7.2,7.2,65,0.00,BKN,FEW,0.00,WeatherDisplay:10.37,2013-05-31 18:03:00,
2013-05-31 19:08:00,58.8,47.1,30.26,WSW,258,13.8,13.8,65,0.00,BKN,FEW,0.00,WeatherDisplay:10.37,2013-05-31 18:08:00,
2013-05-31 19:13:00,58.8,47.1,30.26,West,280,6.9,6.9,65,0.00,BKN,FEW,0.00,WeatherDisplay:10.37,2013-05-31 18:13:00,
2013-05-31 19:18:00,58.8,47.1,30.26,WSW,258,4.6,5.2,65,0.00,BKN,FEW,0.00,WeatherDisplay:10.37,2013-05-31 18:18:00,
2013-05-31 19:24:00,58.6,46.9,30.26,West,280,10.4,10.4,65,0.00,BKN,FEW,0.00,WeatherDisplay:10.37,2013-05-31 18:24:00,
2013-05-31 19:29:00,58.6,46.9,30.26,NW,325,6.9,6.9,65,0.00,BKN,FEW,0.00,WeatherDisplay:10.37,2013-05-31 18:29:00,
2013-05-31 19:34:00,58.8,47.1,30.26,West,280,7.6,7.6,65,0.00,BKN,FEW,0.00,WeatherDisplay:10.37,2013-05-31 18:34:00,
2013-05-31 19:39:00,58.5,46.7,30.26,WSW,258,9.2,9.2,65,0.00,BKN,FEW,0.00,WeatherDisplay:10.37,2013-05-31 18:39:00,
2013-05-31 19:44:00,58.5,46.7,30.27,WSW,258,6.9,6.9,65,0.00,BKN,FEW,0.00,WeatherDisplay:10.37,2013-05-31 18:44:00,
2013-05-31 19:49:00,58.3,46.6,30.27,WSW,258,5.8,5.8,65,0.00,BKN,FEW,0.00,WeatherDisplay:10.37,2013-05-31 18:49:00,
2013-05-31 19:54:00,58.3,46.2,30.27,WSW,258,11.5,11.5,64,0.00,BKN,FEW,0.00,WeatherDisplay:10.37,2013-05-31 18:54:00,
2013-05-31 19:59:00,58.1,46.0,30.27,WSW,258,9.2,9.2,64,0.00,BKN,FEW,0.00,WeatherDisplay:10.37,2013-05-31 18:59:00,
2013-05-31 20:04:00,57.9,45.8,30.26,West,280,8.1,8.1,64,0.00,BKN,FEW,0.00,WeatherDisplay:10.37,2013-05-31 19:04:00,
2013-05-31 20:09:00,57.9,45.8,30.26,WSW,258,6.9,6.9,64,0.00,BKN,FEW,0.00,WeatherDisplay:10.37,2013-05-31 19:09:00,
2013-05-31 20:14:00,57.7,45.6,30.26,WSW,258,6.9,6.9,64,0.00,BKN,FEW,0.00,WeatherDisplay:10.37,2013-05-31 19:14:00,
2013-05-31 20:19:00,57.7,46.0,30.26,WSW,258,4.6,4.6,65,0.00,BKN,FEW,0.00,WeatherDisplay:10.37,2013-05-31 19:19:00,
2013-05-31 20:24:00,57.4,46.1,30.26,West,280,8.7,8.7,66,0.00,BKN,FEW,0.00,WeatherDisplay:10.37,2013-05-31 19:24:00,
2013-05-31 20:29:00,57.2,45.5,30.26,WSW,258,6.9,6.9,65,0.00,BKN,FEW,0.00,WeatherDisplay:10.37,2013-05-31 19:29:00,
2013-05-31 20:34:00,57.2,45.9,30.26,WSW,258,6.9,6.9,66,0.00,BKN,FEW,0.00,WeatherDisplay:10.37,2013-05-31 19:34:00,
2013-05-31 20:39:00,57.2,45.5,30.26,West,280,10.4,10.4,65,0.00,BKN,FEW,0.00,WeatherDisplay:10.37,2013-05-31 19:39:00,
2013-05-31 20:44:00,57.0,45.4,30.26,West,280,9.2,9.2,65,0.00,BKN,FEW,0.00,WeatherDisplay:10.37,2013-05-31 19:44:00,
2013-05-31 20:49:00,56.7,45.0,30.26,WNW,302,6.9,6.9,65,0.00,BKN,FEW,0.00,WeatherDisplay:10.37,2013-05-31 19:49:00,
2013-05-31 20:54:00,56.5,44.9,30.26,WSW,258,7.0,7.0,65,0.00,BKN,FEW,0.00,WeatherDisplay:10.37,2013-05-31 19:54:00,
2013-05-31 20:59:00,56.5,44.9,30.26,West,280,5.8,5.8,65,0.00,BKN,FEW,0.00,WeatherDisplay:10.37,2013-05-31 19:59:00,
2013-05-31 21:04:00,56.3,44.7,30.28,West,280,5.8,5.8,65,0.00,BKN,FEW,0.00,WeatherDisplay:10.37,2013-05-31 20:04:00,
2013-05-31 21:09:00,56.3,44.7,30.28,NW,325,4.6,4.6,65,0.00,BKN,FEW,0.00,WeatherDisplay:10.37,2013-05-31 20:09:00,
2013-05-31 21:14:00,56.1,44.5,30.28,West,280,6.9,6.9,65,0.00,BKN,FEW,0.00,WeatherDisplay:10.37,2013-05-31 20:14:00,
2013-05-31 21:19:00,55.9,43.9,30.28,WSW,258,5.8,5.8,64,0.00,BKN,FEW,0.00,WeatherDisplay:10.37,2013-05-31 20:19:00,
2013-05-31 21:24:00,55.8,43.8,30.28,WNW,302,9.2,9.2,64,0.00,BKN,FEW,0.00,WeatherDisplay:10.37,2013-05-31 20:24:00,
2013-05-31 21:29:00,55.6,43.2,30.28,WNW,302,10.4,10.4,63,0.00,BKN,FEW,0.00,WeatherDisplay:10.37,2013-05-31 20:29:00,
2013-05-31 21:34:00,55.6,43.2,30.28,West,280,5.8,5.8,63,0.00,BKN,FEW,0.00,WeatherDisplay:10.37,2013-05-31 20:34:00,
2013-05-31 21:39:00,55.4,43.0,30.28,West,280,10.4,10.4,63,0.00,BKN,FEW,0.00,WeatherDisplay:10.37,2013-05-31 20:39:00,
2013-05-31 21:44:00,55.2,42.4,30.28,WSW,258,6.3,6.3,62,0.00,BKN,FEW,0.00,WeatherDisplay:10.37,2013-05-31 20:44:00,
2013-05-31 21:49:00,55.2,42.8,30.28,WSW,258,5.8,5.8,63,0.00,BKN,FEW,0.00,WeatherDisplay:10.37,2013-05-31 20:49:00,
2013-05-31 21:54:00,55.0,42.3,30.28,WNW,302,8.1,8.1,62,0.00,BKN,FEW,0.00,WeatherDisplay:10.37,2013-05-31 20:54:00,
2013-05-31 21:59:00,55.0,42.7,30.28,WNW,302,3.9,4.2,63,0.00,BKN,FEW,0.00,WeatherDisplay:10.37,2013-05-31 20:59:00,
2013-05-31 22:04:00,54.7,42.3,30.29,WSW,258,3.5,3.7,63,0.00,BKN,FEW,0.00,WeatherDisplay:10.37,2013-05-31 21:04:00,
2013-05-31 22:09:00,54.7,42.3,30.29,WSW,258,3.6,3.6,63,0.00,BKN,FEW,0.00,WeatherDisplay:10.37,2013-05-31 21:09:00,
2013-05-31 22:14:00,54.3,42.0,30.29,NW,325,5.1,5.1,63,0.00,BKN,FEW,0.00,WeatherDisplay:10.37,2013-05-31 21:14:00,
2013-05-31 22:19:00,54.1,42.2,30.29,WSW,258,4.6,4.6,64,0.00,BKN,FEW,0.00,WeatherDisplay:10.37,2013-05-31 21:19:00,
2013-05-31 22:24:00,53.6,41.7,30.28,NW,325,4.6,4.6,64,0.00,BKN,FEW,0.00,WeatherDisplay:10.37,2013-05-31 21:24:00,
2013-05-31 22:29:00,53.4,41.5,30.28,WSW,258,6.9,6.9,64,0.00,BKN,FEW,0.00,WeatherDisplay:10.37,2013-05-31 21:29:00,
2013-05-31 22:34:00,53.2,41.8,30.28,WSW,258,4.6,4.6,65,0.00,BKN,FEW,0.00,WeatherDisplay:10.37,2013-05-31 21:34:00,
2013-05-31 22:39:00,53.1,41.6,30.28,WSW,258,5.8,5.8,65,0.00,BKN,FEW,0.00,WeatherDisplay:10.37,2013-05-31 21:39:00,
2013-05-31 22:44:00,52.7,41.7,30.28,WNW,302,5.8,5.8,66,0.00,BKN,FEW,0.00,WeatherDisplay:10.37,2013-05-31 21:44:00,
2013-05-31 22:49:00,52.7,41.7,30.28,WSW,258,5.8,5.8,66,0.00,BKN,FEW,0.00,WeatherDisplay:10.37,2013-05-31 21:49:00,
2013-05-31 22:54:00,52.3,41.3,30.28,WSW,258,4.6,4.6,66,0.00,BKN,FEW,0.00,WeatherDisplay:10.37,2013-05-31 21:54:00,
2013-05-31 22:59:00,52.2,41.1,30.28,West,280,8.2,8.2,66,0.00,BKN,FEW,0.00,WeatherDisplay:10.37,2013-05-31 21:59:00,
2013-05-31 23:04:00,52.2,41.1,30.29,West,280,5.2,5.2,66,0.00,FEW,,0.00,WeatherDisplay:10.37,2013-05-31 22:04:00,
2013-05-31 23:09:00,52.0,41.4,30.29,WSW,258,4.0,4.0,67,0.00,FEW,,0.00,WeatherDisplay:10.37,2013-05-31 22:09:00,
2013-05-31 23:14:00,51.6,41.0,30.29,WSW,258,4.3,4.3,67,0.00,FEW,,0.00,WeatherDisplay:10.37,2013-05-31 22:14:00,
2013-05-31 23:19:00,51.6,41.0,30.29,WNW,302,5.8,5.8,67,0.00,FEW,,0.00,WeatherDisplay:10.37,2013-05-31 22:19:00,
2013-05-31 23:24:00,51.4,40.8,30.28,WSW,258,4.6,4.6,67,0.00,FEW,,0.00,WeatherDisplay:10.37,2013-05-31 22:24:00,
2013-05-31 23:29:00,51.4,41.2,30.28,WNW,302,4.6,4.6,68,0.00,FEW,,0.00,WeatherDisplay:10.37,2013-05-31 22:29:00,
2013-05-31 23:34:00,51.1,40.9,30.28,WSW,258,5.8,5.8,68,0.00,FEW,,0.00,WeatherDisplay:10.37,2013-05-31 22:34:00,
2013-05-31 23:39:00,51.3,41.1,30.28,WNW,302,3.5,3.5,68,0.00,FEW,,0.00,WeatherDisplay:10.37,2013-05-31 22:39:00,
2013-05-31 23:44:00,50.9,41.1,30.28,SW,235,5.8,5.8,69,0.00,FEW,,0.00,WeatherDisplay:10.37,2013-05-31 22:44:00,
2013-05-31 23:49:00,50.7,40.9,30.28,West,280,5.8,5.8,69,0.00,FEW,,0.00,WeatherDisplay:10.37,2013-05-31 22:49:00,
2013-05-31 23:54:00,50.9,41.1,30.28,WSW,258,5.8,5.8,69,0.00,FEW,,0.00,WeatherDisplay:10.37,2013-05-31 22:54:00,
2013-05-31 23:59:00,50.7,40.9,30.28,WNW,302,4.6,4.6,69,0.00,FEW,,0.00,WeatherDisplay:10.37,2013-05-31 22:59:00,